Hourly Weather Chalda

Today, 12 June, Saturday

Time Temperature Precipitation Wind Pressure Humidity
00:00 +18°C° 0 mm 1 mps 706 mmHg 88%
01:00 +18°C° 0 mm 1 mps 706 mmHg 88%
02:00 +16°C° 0 mm 1 mps 706 mmHg 88%
03:00 +16°C° 0 mm 1 mps 706 mmHg 87%
04:00 +18°C° 0 mm 1 mps 706 mmHg 85%
05:00 +19°C° 0 mm 1 mps 706 mmHg 82%
06:00 +20°C° 0 mm 1 mps 707 mmHg 79%
07:00 +21°C° 0 mm 1 mps 707 mmHg 76%
08:00 +22°C° 0 mm 1 mps 706 mmHg 72%
09:00 +24°C° 0 mm 2 mps 706 mmHg 68%
10:00 +24°C° 0.4 mm 2 mps 706 mmHg 68%
11:00 +25°C° 0.4 mm 2 mps 706 mmHg 67%
12:00 +25°C° 0.4 mm 3 mps 706 mmHg 66%
13:00 +25°C° 0.9 mm 3 mps 706 mmHg 67%
14:00 +25°C° 0.9 mm 2 mps 706 mmHg 69%
15:00 +25°C° 0.9 mm 2 mps 706 mmHg 71%
16:00 +24°C° 0.4 mm 2 mps 706 mmHg 74%
17:00 +23°C° 0.4 mm 2 mps 706 mmHg 78%
18:00 +23°C° 0.4 mm 1 mps 706 mmHg 81%
19:00 +22°C° 0.3 mm 1 mps 706 mmHg 83%
20:00 +21°C° 0.3 mm 1 mps 706 mmHg 86%
21:00 +18°C° 0.3 mm 0 mps 707 mmHg 89%
22:00 +20°C° 0.1 mm 1 mps 706 mmHg 88%
23:00 +20°C° 0.1 mm 1 mps 706 mmHg 87%

Tomorrow, 13 June, Sunday

Time Temperature Precipitation Wind Pressure Humidity
00:00 +20°C° 0.1 mm 1 mps 706 mmHg 87%
01:00 +20°C° 0.1 mm 1 mps 706 mmHg 87%
02:00 +20°C° 0.1 mm 1 mps 706 mmHg 86%
03:00 +20°C° 0.1 mm 1 mps 706 mmHg 86%
04:00 +20°C° 0 mm 1 mps 706 mmHg 84%
05:00 +21°C° 0 mm 1 mps 705 mmHg 82%
06:00 +19°C° 0 mm 0 mps 705 mmHg 80%
07:00 +22°C° 0.1 mm 1 mps 705 mmHg 75%
08:00 +24°C° 0.1 mm 1 mps 705 mmHg 70%
09:00 +25°C° 0.1 mm 2 mps 705 mmHg 66%
10:00 +25°C° 0.5 mm 2 mps 705 mmHg 65%
11:00 +26°C° 0.5 mm 2 mps 705 mmHg 64%
12:00 +26°C° 0.5 mm 3 mps 705 mmHg 63%
13:00 +26°C° 0.9 mm 3 mps 705 mmHg 65%
14:00 +25°C° 0.9 mm 2 mps 705 mmHg 67%
15:00 +25°C° 0.9 mm 2 mps 705 mmHg 69%
16:00 +24°C° 0.3 mm 2 mps 705 mmHg 72%
17:00 +24°C° 0.3 mm 2 mps 705 mmHg 75%
18:00 +23°C° 0.3 mm 2 mps 705 mmHg 78%
19:00 +23°C° 0.2 mm 1 mps 705 mmHg 81%
20:00 +22°C° 0.2 mm 1 mps 705 mmHg 85%
21:00 +21°C° 0.2 mm 1 mps 706 mmHg 88%
22:00 +20°C° 0.1 mm 1 mps 705 mmHg 89%
23:00 +20°C° 0.1 mm 1 mps 705 mmHg 90%

Day after tomorrow, 14 June, Monday

Time Temperature Precipitation Wind Pressure Humidity
00:00 +20°C° 0.1 mm 1 mps 705 mmHg 90%
01:00 +19°C° 0 mm 1 mps 705 mmHg 90%
02:00 +19°C° 0 mm 1 mps 705 mmHg 90%
03:00 +19°C° 0 mm 1 mps 705 mmHg 89%
04:00 +20°C° 0 mm 1 mps 705 mmHg 87%
05:00 +20°C° 0 mm 1 mps 705 mmHg 84%
06:00 +21°C° 0 mm 1 mps 706 mmHg 81%
07:00 +22°C° 0 mm 1 mps 706 mmHg 77%
08:00 +24°C° 0 mm 1 mps 706 mmHg 72%
09:00 +25°C° 0 mm 1 mps 706 mmHg 68%
10:00 +26°C° 0.1 mm 2 mps 705 mmHg 66%
11:00 +26°C° 0.1 mm 2 mps 705 mmHg 64%
12:00 +27°C° 0.1 mm 2 mps 705 mmHg 62%
13:00 +27°C° 0.1 mm 2 mps 705 mmHg 63%
14:00 +27°C° 0.1 mm 2 mps 706 mmHg 65%
15:00 +27°C° 0.1 mm 2 mps 706 mmHg 66%
16:00 +26°C° 0.1 mm 2 mps 706 mmHg 69%
17:00 +26°C° 0.1 mm 2 mps 706 mmHg 72%
18:00 +25°C° 0.1 mm 1 mps 706 mmHg 75%
19:00 +24°C° 0 mm 1 mps 706 mmHg 78%
20:00 +22°C° 0 mm 1 mps 706 mmHg 81%
21:00 +21°C° 0 mm 1 mps 706 mmHg 83%
22:00 +21°C° 0 mm 1 mps 706 mmHg 82%
23:00 +20°C° 0 mm 1 mps 706 mmHg 81%

15 June, Tuesday

Time Temperature Precipitation Wind Pressure Humidity
00:00 +19°C° 0 mm 2 mps 706 mmHg 80%
01:00 +19°C° 0 mm 2 mps 705 mmHg 78%
02:00 +19°C° 0 mm 2 mps 705 mmHg 75%
03:00 +18°C° 0 mm 2 mps 705 mmHg 73%
04:00 +19°C° 0 mm 2 mps 705 mmHg 71%
05:00 +20°C° 0 mm 2 mps 704 mmHg 69%
06:00 +21°C° 0 mm 2 mps 704 mmHg 67%
07:00 +24°C° 0 mm 2 mps 704 mmHg 60%
08:00 +27°C° 0 mm 1 mps 703 mmHg 53%
09:00 +29°C° 0 mm 1 mps 703 mmHg 46%
10:00 +30°C° 0 mm 2 mps 703 mmHg 43%
11:00 +32°C° 0 mm 2 mps 702 mmHg 40%
12:00 +34°C° 0 mm 2 mps 702 mmHg 37%
13:00 +34°C° 0 mm 2 mps 702 mmHg 37%
14:00 +34°C° 0 mm 2 mps 702 mmHg 37%
15:00 +34°C° 0 mm 2 mps 702 mmHg 36%
16:00 +31°C° 0 mm 2 mps 703 mmHg 46%
17:00 +30°C° 0 mm 2 mps 703 mmHg 56%
18:00 +29°C° 0 mm 2 mps 703 mmHg 66%
19:00 +27°C° 0 mm 2 mps 703 mmHg 70%
20:00 +25°C° 0 mm 1 mps 704 mmHg 74%
21:00 +23°C° 0 mm 1 mps 704 mmHg 78%
22:00 +22°C° 0 mm 1 mps 704 mmHg 77%
23:00 +22°C° 0 mm 1 mps 704 mmHg 75%

16 June, Wednesday

Time Temperature Precipitation Wind Pressure Humidity
00:00 +21°C° 0 mm 2 mps 705 mmHg 74%
01:00 +20°C° 0 mm 2 mps 705 mmHg 73%
02:00 +20°C° 0 mm 2 mps 705 mmHg 72%
03:00 +21°C° 0 mm 1 mps 705 mmHg 71%
04:00 +22°C° 0 mm 1 mps 705 mmHg 70%
05:00 +23°C° 0 mm 1 mps 706 mmHg 68%
06:00 +22°C° 0 mm 0 mps 706 mmHg 67%
07:00 +25°C° 0 mm 1 mps 706 mmHg 66%
08:00 +26°C° 0 mm 1 mps 706 mmHg 65%
09:00 +27°C° 0 mm 2 mps 706 mmHg 63%
10:00 +28°C° 0 mm 2 mps 706 mmHg 64%
11:00 +29°C° 0 mm 3 mps 706 mmHg 64%
12:00 +29°C° 0 mm 3 mps 706 mmHg 64%
13:00 +29°C° 0.1 mm 3 mps 706 mmHg 66%
14:00 +29°C° 0.1 mm 3 mps 706 mmHg 68%
15:00 +28°C° 0.1 mm 2 mps 706 mmHg 70%
16:00 +28°C° 0 mm 2 mps 706 mmHg 72%
17:00 +28°C° 0 mm 2 mps 706 mmHg 73%
18:00 +27°C° 0 mm 1 mps 706 mmHg 74%
19:00 +26°C° 0 mm 1 mps 706 mmHg 78%
20:00 +25°C° 0 mm 1 mps 706 mmHg 81%
21:00 +23°C° 0 mm 1 mps 706 mmHg 84%
22:00 +23°C° 0 mm 1 mps 706 mmHg 85%
23:00 +23°C° 0 mm 1 mps 706 mmHg 85%

17 June, Thursday

Time Temperature Precipitation Wind Pressure Humidity
00:00 +22°C° 0 mm 1 mps 706 mmHg 85%
01:00 +22°C° 0 mm 1 mps 706 mmHg 84%
02:00 +22°C° 0 mm 1 mps 706 mmHg 83%
03:00 +21°C° 0 mm 1 mps 706 mmHg 82%
04:00 +22°C° 0 mm 1 mps 706 mmHg 80%
05:00 +23°C° 0 mm 1 mps 706 mmHg 77%
06:00 +22°C° 0 mm 0 mps 706 mmHg 75%
07:00 +25°C° 0 mm 1 mps 706 mmHg 73%
08:00 +26°C° 0 mm 1 mps 706 mmHg 71%
09:00 +27°C° 0 mm 2 mps 705 mmHg 68%
10:00 +28°C° 0 mm 2 mps 705 mmHg 68%
11:00 +28°C° 0 mm 2 mps 705 mmHg 68%
12:00 +28°C° 0 mm 3 mps 705 mmHg 69%
13:00 +28°C° 0.1 mm 3 mps 705 mmHg 71%
14:00 +28°C° 0.1 mm 3 mps 706 mmHg 73%
15:00 +28°C° 0.1 mm 2 mps 706 mmHg 75%
16:00 +27°C° 0.1 mm 2 mps 706 mmHg 78%
17:00 +26°C° 0.1 mm 2 mps 706 mmHg 82%
18:00 +25°C° 0.1 mm 2 mps 707 mmHg 86%
19:00 +25°C° 0.1 mm 1 mps 707 mmHg 87%
20:00 +24°C° 0.1 mm 1 mps 708 mmHg 88%
21:00 +24°C° 0.1 mm 1 mps 708 mmHg 89%
22:00 +24°C° 0 mm 1 mps 708 mmHg 89%
23:00 +21°C° 0 mm 0 mps 708 mmHg 89%
Show more

We Need Your Consent

Meteoprog and our Service Providers may store and access personal data such as cookies, device identifiers or other similar technologies on your device and process such data to personalise content and ads, as well as provide social media features and to analyse the traffic.

  • Store and/or access information on your device

    Cookies, device identifiers or other information can be stored or accessed on your device for the purposes indicated above.

  • Personalised ads and content, ad and content measurement, audience insights, and products development

    Ads and content can be personalised based on a profile. More data can be added to better personalise ads and content. Ad and content performance can be measured. Insights about the audience who saw the ads and content can be derived. Such data can be used to develop or improve user’s experience, systems and software.

By clicking ‘I Agree’ you will allow the use of indicated cookies, device identifiers, web beacons or other similar technologies. Your settings can be changed in the browser on your device.

For certain purposes, legitimate interests may be relied on, rather than consent. You can read more about this in our Privacy and Cookie Policy.